SIA965 WIII-WSSS

Flight info

Callsign SIA965
Flight time 0h 18m
Altitude 38000
Route DOLTA G579 REPOV REPOV2A
Aircraft B77W/H-SDE1E2E3FGHIJ2J3J4J5M1RWXY/LB1D1

Departure

Time 2026-05-04 12:33
Airport Soekarno-Hatta International Airport (WIII)

Arrival

Time 2026-05-04 12:52
Airport Singapore Changi Airport (WSSS)
Time Latitude Longitude Altitude Speed Heading
2026-05-04 12:17 -6.11841 106.66233 43 ft 0 kts 158°
2026-05-04 12:26 -6.11831 106.66229 43 ft 4 kts 158°
2026-05-04 12:26 -6.11805 106.66219 41 ft 4 kts 158°
2026-05-04 12:26 -6.11775 106.66207 40 ft 3 kts 158°
2026-05-04 12:27 -6.11760 106.66171 37 ft 4 kts 68°
2026-05-04 12:27 -6.11769 106.66148 37 ft 0 kts 68°
2026-05-04 12:29 -6.11764 106.66159 40 ft 7 kts 69°
2026-05-04 12:29 -6.11729 106.66248 43 ft 18 kts 68°
2026-05-04 12:29 -6.11686 106.66356 43 ft 12 kts 68°
2026-05-04 12:30 -6.11631 106.66404 43 ft 12 kts 359°
2026-05-04 12:30 -6.11513 106.66361 43 ft 12 kts 338°
2026-05-04 12:30 -6.11384 106.66309 43 ft 12 kts 338°
2026-05-04 12:30 -6.11319 106.66336 44 ft 13 kts 62°
2026-05-04 12:31 -6.11269 106.66458 44 ft 24 kts 68°
2026-05-04 12:31 -6.11208 106.66612 43 ft 24 kts 68°
2026-05-04 12:31 -6.11146 106.66767 43 ft 24 kts 68°
2026-05-04 12:31 -6.11086 106.66917 43 ft 17 kts 68°
2026-05-04 12:32 -6.11035 106.66976 43 ft 11 kts 19°
2026-05-04 12:32 -6.10925 106.66888 43 ft 12 kts 296°
2026-05-04 12:32 -6.10945 106.66782 43 ft 32 kts 248°
2026-05-04 12:33 -6.11142 106.66285 46 ft 122 kts 248°
2026-05-04 12:33 -6.11551 106.65245 146 ft 186 kts 248°
2026-05-04 12:33 -6.12027 106.64016 990 ft 193 kts 248°
2026-05-04 12:33 -6.12304 106.62676 1750 ft 205 kts 275°
2026-05-04 12:34 -6.11944 106.61225 2146 ft 226 kts 289°
2026-05-04 12:34 -6.11390 106.59628 2376 ft 258 kts 290°
2026-05-04 12:34 -6.10688 106.57517 3259 ft 270 kts 288°
2026-05-04 12:34 -6.08462 106.50113 6813 ft 284 kts 287°
2026-05-04 12:35 -6.02542 106.45005 9802 ft 296 kts 329°
2026-05-04 12:35 -5.95140 106.40405 12523 ft 336 kts 329°
2026-05-04 12:35 -5.86595 106.35060 15034 ft 388 kts 329°
2026-05-04 12:35 -5.68232 106.23730 20190 ft 433 kts 332°
2026-05-04 12:36 -5.46601 106.11709 24954 ft 465 kts 332°
2026-05-04 12:36 -5.23601 105.98714 29055 ft 485 kts 332°
2026-05-04 12:36 -4.99548 105.85094 32133 ft 501 kts 332°
2026-05-04 12:36 -4.75460 105.71332 35327 ft 493 kts 331°
2026-05-04 12:37 -4.51615 105.57769 37301 ft 500 kts 331°
2026-05-04 12:37 -4.27130 105.43821 37930 ft 509 kts 332°
2026-05-04 12:37 -4.02546 105.29851 37898 ft 506 kts 332°
2026-05-04 12:37 -3.78410 105.16196 37752 ft 488 kts 332°
2026-05-04 12:38 -3.55211 105.03160 37743 ft 471 kts 332°
2026-05-04 12:38 -3.32411 104.90321 37892 ft 473 kts 332°
2026-05-04 12:38 -3.09110 104.77225 38019 ft 486 kts 332°
2026-05-04 12:38 -2.85124 104.64437 37885 ft 493 kts 343°
2026-05-04 12:39 -2.58453 104.59819 37917 ft 486 kts 351°
2026-05-04 12:39 -2.05480 104.49758 37858 ft 487 kts 350°
2026-05-04 12:40 -1.52181 104.39695 37920 ft 488 kts 350°
2026-05-04 12:40 -0.98840 104.29646 37860 ft 487 kts 350°
2026-05-04 12:40 -0.92937 104.28531 37637 ft 491 kts 350°
2026-05-04 12:41 -0.89268 104.27839 36853 ft 497 kts 350°
2026-05-04 12:41 -0.77165 104.25556 34855 ft 484 kts 351°
2026-05-04 12:41 -0.64124 104.23099 32829 ft 471 kts 351°
2026-05-04 12:41 -0.51420 104.20672 30829 ft 459 kts 350°
2026-05-04 12:42 -0.31010 104.16583 27432 ft 440 kts 350°
2026-05-04 12:42 -0.07560 104.11927 23734 ft 418 kts 350°
2026-05-04 12:42 0.14499 104.07543 19875 ft 400 kts 351°
2026-05-04 12:42 0.34831 104.03505 17072 ft 365 kts 351°
2026-05-04 12:43 0.44018 104.01686 15703 ft 352 kts 351°
2026-05-04 12:43 0.53396 103.99826 14533 ft 335 kts 350°
2026-05-04 12:43 0.62201 103.98080 12927 ft 307 kts 350°
2026-05-04 12:43 0.68307 103.96871 11446 ft 309 kts 349°
2026-05-04 12:44 0.72536 103.96032 10757 ft 308 kts 349°
2026-05-04 12:44 0.80755 103.94278 9725 ft 293 kts 348°
2026-05-04 12:44 0.88665 103.92577 8390 ft 289 kts 347°
2026-05-04 12:44 0.96328 103.90817 7083 ft 286 kts 346°
2026-05-04 12:45 0.98268 103.90353 6726 ft 287 kts 346°
2026-05-04 12:45 1.00204 103.89891 6410 ft 287 kts 346°
2026-05-04 12:45 1.02134 103.89432 6084 ft 286 kts 346°
2026-05-04 12:45 1.04053 103.88976 5773 ft 284 kts 346°
2026-05-04 12:46 1.05964 103.88522 5516 ft 280 kts 346°
2026-05-04 12:46 1.07853 103.88074 5235 ft 277 kts 346°
2026-05-04 12:46 1.09733 103.87823 4925 ft 268 kts 357°
2026-05-04 12:46 1.11545 103.87922 4624 ft 255 kts 13°
2026-05-04 12:47 1.13153 103.88479 4390 ft 243 kts 22°
2026-05-04 12:47 1.14703 103.89155 4077 ft 243 kts 23°
2026-05-04 12:47 1.16246 103.89828 3784 ft 242 kts 22°
2026-05-04 12:47 1.17796 103.90492 3474 ft 242 kts 22°
2026-05-04 12:48 1.19345 103.91150 3174 ft 241 kts 22°
2026-05-04 12:48 1.20890 103.91805 2864 ft 241 kts 22°
2026-05-04 12:48 1.22421 103.92454 2566 ft 234 kts 22°
2026-05-04 12:48 1.23882 103.93074 2272 ft 223 kts 22°
2026-05-04 12:49 1.25274 103.93665 1965 ft 209 kts 22°
2026-05-04 12:49 1.26533 103.94199 1708 ft 187 kts 23°
2026-05-04 12:49 1.27678 103.94685 1507 ft 171 kts 23°
2026-05-04 12:49 1.28740 103.95136 1239 ft 158 kts 23°
2026-05-04 12:50 1.29714 103.95549 1077 ft 153 kts 23°
2026-05-04 12:50 1.30700 103.95967 869 ft 154 kts 23°
2026-05-04 12:50 1.31671 103.96380 689 ft 150 kts 22°
2026-05-04 12:50 1.32628 103.96790 535 ft 151 kts 22°
2026-05-04 12:51 1.33601 103.97197 348 ft 151 kts 22°
2026-05-04 12:51 1.34556 103.97602 162 ft 148 kts 21°
2026-05-04 12:51 1.35490 103.97996 37 ft 138 kts 21°
2026-05-04 12:51 1.36239 103.98312 35 ft 91 kts 23°
2026-05-04 12:52 1.36652 103.98487 35 ft 38 kts 23°
2026-05-04 12:52 1.36885 103.98585 35 ft 35 kts 23°
2026-05-04 12:52 1.37044 103.98698 35 ft 26 kts 48°
2026-05-04 12:52 1.37107 103.98792 35 ft 12 kts 75°
2026-05-04 12:53 1.37079 103.98834 35 ft 7 kts 159°
2026-05-04 12:53 1.37031 103.98851 35 ft 6 kts 152°
2026-05-04 12:53 1.37004 103.98880 35 ft 6 kts 123°
2026-05-04 12:53 1.36976 103.98936 35 ft 13 kts 114°
2026-05-04 12:54 1.36927 103.99048 35 ft 20 kts 113°
2026-05-04 12:54 1.36873 103.99176 35 ft 20 kts 113°
2026-05-04 12:54 1.36818 103.99304 35 ft 20 kts 113°
2026-05-04 12:54 1.36764 103.99431 35 ft 20 kts 113°
2026-05-04 12:55 1.36710 103.99558 35 ft 20 kts 113°
2026-05-04 12:55 1.36671 103.99648 35 ft 11 kts 113°
2026-05-04 12:55 1.36609 103.99675 35 ft 11 kts 193°
2026-05-04 12:55 1.36537 103.99646 35 ft 11 kts 203°
2026-05-04 12:56 1.36463 103.99615 35 ft 12 kts 202°
2026-05-04 12:56 1.36385 103.99579 35 ft 12 kts 214°
2026-05-04 12:56 1.36333 103.99512 35 ft 12 kts 234°
2026-05-04 12:56 1.36280 103.99444 35 ft 12 kts 224°
2026-05-04 12:57 1.36205 103.99402 35 ft 12 kts 202°
2026-05-04 12:57 1.36125 103.99368 35 ft 12 kts 202°
2026-05-04 12:57 1.36045 103.99335 35 ft 12 kts 203°
2026-05-04 12:57 1.35966 103.99301 35 ft 12 kts 202°
2026-05-04 12:58 1.35886 103.99267 35 ft 12 kts 203°
2026-05-04 12:58 1.35819 103.99239 35 ft 5 kts 203°
2026-05-04 12:58 1.35796 103.99229 35 ft 4 kts 206°
2026-05-04 12:58 1.35784 103.99206 35 ft 4 kts 261°
2026-05-04 12:59 1.35786 103.99188 35 ft 4 kts 281°
2026-05-04 12:59 1.35795 103.99165 35 ft 3 kts 292°
2026-05-04 12:59 1.35799 103.99154 35 ft 1 kts 293°
2026-05-04 12:59 1.35800 103.99153 35 ft 0 kts 293°